Location: Vancouver
(49.2500°N, 123.1330°W)
Time: 01:40:02
(UTC-07:00)

YAOGAN 6 - Visible Passes

Search period start: 25 May 2017 00:00
Search period end: 04 June 2017 00:00
Orbit: 468 x 509 km, 97.1° (Epoch: 24 May)

Date Brightness Start Highest point End Pass type
(mag) Time Alt. Az. Time Alt. Az. Time Alt. Az.
25 May 5.2 22:41:56 10° SW 22:43:55 14° W 22:45:54 10° NW visible
26 May 4.5 22:17:44 10° SSW 22:20:41 25° W 22:23:39 10° NW visible
27 May 3.5 21:54:09 10° S 21:57:31 46° W 22:00:56 10° NNW visible
29 May 5.3 22:43:23 10° WSW 22:45:16 14° W 22:47:09 10° WNW visible
30 May 4.6 22:19:07 10° SSW 22:22:01 24° W 22:24:57 10° NW visible
31 May 3.6 21:55:29 10° S 21:58:51 43° W 22:02:15 10° NNW visible
02 Jun 5.3 22:44:50 10° WSW 22:46:36 13° W 22:48:22 10° WNW visible
03 Jun 4.7 22:20:28 10° SSW 22:23:20 23° W 22:26:14 10° NW visible
